Weather History for Gwinner, ND

Change the Weather History Date:

Monday, March 25, 2013

  Actual Average (KP67) Record (KP67)
Temperature  
Mean Temperature 20 °F -  
Max Temperature 26 °F 37 °F 46 °F (1998)
Min Temperature 12 °F 25 °F 28 °F (1997)
Degree Days  
Heating Degree Days 45    
Moisture  
Dew Point 18 °F    
Average Humidity 82    
Maximum Humidity 93    
Minimum Humidity 69    
Precipitation  
Precipitation 0.00 in - - ()
Sea Level Pressure  
Sea Level Pressure 30.29 in    
Wind  
Wind Speed 15 mph (NNW)    
Max Wind Speed 20 mph    
Max Gust Speed 22 mph    
Visibility 9 miles    
Events      
Averages and records for this station are not official NWS values.
T = Trace of Precipitation, MM = Missing Value Source: NWS Daily Summary

Daily Weather History Graph

Daily Weather History Graph

Search for Another Location

Airport:

Trip Planner

Search our weather history database for the weather conditions in past years. The results will help you decide how hot, cold, wet, or windy it might be!

Date:

Astronomy

Mar. 25, 2013 Rise Set
Actual Time 7:23 AM CDT 7:50 PM CDT
Civil Twilight 6:53 AM CDT 8:20 PM CDT
Nautical Twilight 6:17 AM CDT 8:56 PM CDT
Astronomical Twilight 5:41 AM CDT 9:32 PM CDT
Moon 6:20 PM CDT (3/25) 6:12 AM CDT (3/25)
Length of Visible Light 13h 27m
Length of Day
12h 27m
Waxing Gibbous, 96% of the Moon is Illuminated
Mar 25
Waxing Gibbous
Mar 27
Full
Apr 2
Last Quarter
Apr 10
New
Apr 18
First Quarter

Hourly Weather History & Observations

Time (CDT) Temp. Windchill Dew Point Humidity Pressure Visibility Wind Dir Wind Speed Gust Speed Precip Events Conditions
12:15 AM 24.8 °F 12.4 °F 21.2 °F 86% 30.23 in 10.0 mi NNW 15.0 mph - 0.00 in   Overcast
12:35 AM 23.0 °F 9.6 °F 21.2 °F 93% 30.23 in 10.0 mi NNW 16.1 mph - 0.00 in   Overcast
12:55 AM 23.0 °F 10.1 °F 21.2 °F 93% 30.23 in 10.0 mi NNW 15.0 mph - 0.00 in   Overcast
1:15 AM 23.0 °F 9.6 °F 21.2 °F 93% 30.23 in 10.0 mi NNW 16.1 mph - 0.00 in   Overcast
1:35 AM 23.0 °F 9.6 °F 21.2 °F 93% 30.23 in 10.0 mi NNW 16.1 mph - 0.00 in   Overcast
1:55 AM 23.0 °F 9.6 °F 19.4 °F 86% 30.23 in 10.0 mi NNW 16.1 mph - 0.00 in   Overcast
2:15 AM 23.0 °F 11.1 °F 19.4 °F 86% 30.23 in 10.0 mi NNW 12.7 mph - 0.00 in   Overcast
2:35 AM 23.0 °F 10.1 °F 19.4 °F 86% 30.23 in 10.0 mi NNW 15.0 mph - 0.00 in   Overcast
2:55 AM 23.0 °F 10.6 °F 19.4 °F 86% 30.23 in 10.0 mi NNW 13.8 mph - 0.00 in   Overcast
3:15 AM 23.0 °F 10.1 °F 19.4 °F 86% 30.23 in 10.0 mi NNW 15.0 mph - 0.00 in   Overcast
3:35 AM 23.0 °F 10.1 °F 19.4 °F 86% 30.23 in 10.0 mi NNW 15.0 mph - 0.00 in   Overcast
3:55 AM 23.0 °F 10.1 °F 19.4 °F 86% 30.23 in 10.0 mi NNW 15.0 mph - 0.00 in   Overcast
4:15 AM 21.2 °F 7.8 °F 17.6 °F 86% 30.23 in 10.0 mi NNW 15.0 mph - 0.00 in   Overcast
4:35 AM 21.2 °F 7.8 °F 17.6 °F 86% 30.22 in 9.0 mi NNW 15.0 mph - 0.00 in   Overcast
4:55 AM 21.2 °F 7.3 °F 17.6 °F 86% 30.23 in 8.0 mi NNW 16.1 mph - 0.00 in   Overcast
5:15 AM 21.2 °F 7.8 °F 17.6 °F 86% 30.24 in 4.0 mi NNW 15.0 mph - 0.00 in   Overcast
5:35 AM 21.2 °F 7.8 °F 17.6 °F 86% 30.24 in 6.0 mi NNW 15.0 mph - 0.00 in   Overcast
5:55 AM 21.2 °F 7.8 °F 17.6 °F 86% 30.24 in 7.0 mi NNW 15.0 mph - 0.00 in   Overcast
6:15 AM 21.2 °F 7.8 °F 17.6 °F 86% 30.25 in 8.0 mi NNW 15.0 mph - 0.00 in   Overcast
6:35 AM 21.2 °F 7.3 °F 17.6 °F 86% 30.26 in 5.0 mi NNW 16.1 mph - 0.00 in   Overcast
6:55 AM 21.2 °F 7.3 °F 17.6 °F 86% 30.26 in 8.0 mi NNW 16.1 mph - 0.00 in   Overcast
7:15 AM 21.2 °F 7.8 °F 17.6 °F 86% 30.27 in 10.0 mi NNW 15.0 mph - 0.00 in   Overcast
7:35 AM 21.2 °F 7.8 °F 17.6 °F 86% 30.27 in 4.0 mi NNW 15.0 mph - 0.00 in   Overcast
7:55 AM 21.2 °F 7.8 °F 17.6 °F 86% 30.28 in 3.0 mi NNW 15.0 mph - 0.00 in   Overcast
8:15 AM 21.2 °F 8.3 °F 17.6 °F 86% 30.29 in 7.0 mi NNW 13.8 mph - 0.00 in   Overcast
8:35 AM 21.2 °F 7.8 °F 17.6 °F 86% 30.29 in 10.0 mi NNW 15.0 mph - 0.00 in   Overcast
8:55 AM 21.2 °F 7.3 °F 17.6 °F 86% 30.29 in 10.0 mi NNW 16.1 mph - 0.00 in   Overcast
9:15 AM 21.2 °F 7.8 °F 17.6 °F 86% 30.29 in 10.0 mi NNW 15.0 mph - 0.00 in   Overcast
9:35 AM 21.2 °F 7.8 °F 17.6 °F 86% 30.30 in 10.0 mi NNW 15.0 mph 21.9 mph 0.00 in   Overcast
9:55 AM 21.2 °F 7.8 °F 17.6 °F 86% 30.30 in 10.0 mi NNW 15.0 mph - 0.00 in   Overcast
10:15 AM 23.0 °F 10.1 °F 17.6 °F 80% 30.31 in 10.0 mi NNW 15.0 mph - 0.00 in   Overcast
10:35 AM 23.0 °F 9.6 °F 19.4 °F 86% 30.31 in 9.0 mi North 16.1 mph - 0.00 in   Overcast
10:55 AM 23.0 °F 9.2 °F 19.4 °F 86% 30.32 in 10.0 mi North 17.3 mph - 0.00 in   Overcast
11:15 AM 23.0 °F 9.2 °F 19.4 °F 86% 30.32 in 9.0 mi North 17.3 mph - 0.00 in   Overcast
11:35 AM 23.0 °F 9.2 °F 19.4 °F 86% 30.33 in 9.0 mi North 17.3 mph - 0.00 in   Overcast
11:55 AM 24.8 °F 11.9 °F 19.4 °F 80% 30.33 in 10.0 mi North 16.1 mph - 0.00 in   Overcast
12:15 PM 24.8 °F 11.1 °F 19.4 °F 80% 30.33 in 10.0 mi North 18.4 mph - 0.00 in   Overcast
12:35 PM 26.6 °F 13.8 °F 19.4 °F 74% 30.32 in 10.0 mi North 17.3 mph - 0.00 in   Overcast
12:55 PM 26.6 °F 13.4 °F 19.4 °F 74% 30.32 in 10.0 mi NNW 18.4 mph - 0.00 in   Overcast
1:15 PM 26.6 °F 13.4 °F 19.4 °F 74% 30.32 in 10.0 mi North 18.4 mph - 0.00 in   Overcast
1:35 PM 26.6 °F 13.1 °F 19.4 °F 74% 30.32 in 9.0 mi NNW 19.6 mph - 0.00 in   Overcast
1:55 PM 26.6 °F 13.4 °F 19.4 °F 74% 30.32 in 10.0 mi NNW 18.4 mph - 0.00 in   Overcast
2:15 PM 26.6 °F 13.4 °F 19.4 °F 74% 30.32 in 10.0 mi NNW 18.4 mph - 0.00 in   Overcast
2:35 PM 26.6 °F 14.3 °F 19.4 °F 74% 30.32 in 10.0 mi NNW 16.1 mph - 0.00 in   Overcast
2:55 PM 26.6 °F 13.8 °F 19.4 °F 74% 30.31 in 10.0 mi NNW 17.3 mph - 0.00 in   Overcast
3:15 PM 26.6 °F 13.8 °F 19.4 °F 74% 30.31 in 10.0 mi North 17.3 mph - 0.00 in   Overcast
3:35 PM 26.6 °F 14.7 °F 17.6 °F 69% 30.31 in 10.0 mi NNW 15.0 mph - 0.00 in   Overcast
3:55 PM 26.6 °F 14.3 °F 19.4 °F 74% 30.32 in 10.0 mi NNW 16.1 mph - 0.00 in   Overcast
4:15 PM 26.6 °F 14.7 °F 17.6 °F 69% 30.32 in 10.0 mi NNW 15.0 mph - 0.00 in   Overcast
4:35 PM 26.6 °F 13.8 °F 19.4 °F 74% 30.32 in 10.0 mi NW 17.3 mph - 0.00 in   Overcast
4:55 PM 26.6 °F 14.3 °F 19.4 °F 74% 30.32 in 10.0 mi NW 16.1 mph - 0.00 in   Overcast
5:15 PM 26.6 °F 14.3 °F 19.4 °F 74% 30.32 in 10.0 mi NW 16.1 mph - 0.00 in   Mostly Cloudy
5:35 PM 26.6 °F 14.7 °F 19.4 °F 74% 30.32 in 10.0 mi NW 15.0 mph - 0.00 in   Mostly Cloudy
5:55 PM 26.6 °F 15.2 °F 17.6 °F 69% 30.32 in 10.0 mi NNW 13.8 mph - 0.00 in   Scattered Clouds
6:15 PM 24.8 °F 13.4 °F 17.6 °F 74% 30.32 in 10.0 mi NW 12.7 mph - 0.00 in   Clear
6:35 PM 24.8 °F 14.0 °F 17.6 °F 74% 30.33 in 10.0 mi NW 11.5 mph - 0.00 in   Clear
6:55 PM 23.0 °F 12.4 °F 17.6 °F 80% 30.33 in 10.0 mi NW 10.4 mph - 0.00 in   Clear
7:15 PM 23.0 °F 11.7 °F 17.6 °F 80% 30.33 in 10.0 mi NW 11.5 mph - 0.00 in   Clear
7:35 PM 23.0 °F 11.1 °F 17.6 °F 80% 30.33 in 10.0 mi NW 12.7 mph - 0.00 in   Clear
7:55 PM 23.0 °F 11.1 °F 15.8 °F 74% 30.34 in 10.0 mi NW 12.7 mph - 0.00 in   Scattered Clouds
8:15 PM 21.2 °F 8.9 °F 17.6 °F 86% 30.34 in 10.0 mi NW 12.7 mph - 0.00 in   Scattered Clouds
8:35 PM 21.2 °F 9.5 °F 15.8 °F 80% 30.34 in 10.0 mi NW 11.5 mph - 0.00 in   Clear
8:55 PM 19.4 °F 7.2 °F 15.8 °F 86% 30.34 in 10.0 mi NW 11.5 mph - 0.00 in   Clear
9:15 PM 19.4 °F 7.2 °F 14.0 °F 80% 30.34 in 10.0 mi NW 11.5 mph - 0.00 in   Clear
9:35 PM 19.4 °F 6.6 °F 14.0 °F 80% 30.34 in 10.0 mi NW 12.7 mph - 0.00 in   Clear
9:55 PM 17.6 °F 4.3 °F 14.0 °F 86% 30.34 in 10.0 mi NW 12.7 mph - 0.00 in   Clear
10:15 PM 17.6 °F 5.0 °F 14.0 °F 86% 30.34 in 10.0 mi NW 11.5 mph - 0.00 in   Clear
10:35 PM 17.6 °F 5.7 °F 14.0 °F 86% 30.34 in 10.0 mi NW 10.4 mph - 0.00 in   Clear
10:55 PM 15.8 °F 2.7 °F 12.2 °F 86% 30.34 in 10.0 mi NW 11.5 mph - 0.00 in   Clear
11:15 PM 14.0 °F 0.5 °F 10.4 °F 86% 30.34 in 10.0 mi NW 11.5 mph - 0.00 in   Clear
11:35 PM 14.0 °F 1.2 °F 10.4 °F 86% 30.34 in 10.0 mi NW 10.4 mph - 0.00 in   Clear
11:55 PM 12.2 °F -0.2 °F 10.4 °F 92% 30.34 in 10.0 mi NW 9.2 mph - 0.00 in   Clear